Regional Weather Roundup
Issued by NWS Sioux Falls, SD

Home | Current Version | Previous Version | Graphics & Text | Print | Product List | Glossary On
Versions: 1 2 3 4 5 6 7 8 9 10 11 12 13 14 15 16 17 18 19 20 21 22 23 24 25 26 27 28 29 30 31 32 33 34 35 36 37 38 39 40 41 42 43 44 45 46 47 48 49 50
000
ASUS43 KFSD 231510
RWRFSD

WEATHER ROUNDUP FOR SE SOUTH DAKOTA/SW MINNESOTA/NW IOWA
NATIONAL WEATHER SERVICE SIOUX FALLS SD
1000 AM CDT TUE AUG 23 2016

NOTE: "FAIR" INDICATES FEW OR NO CLOUDS BELOW 12,000 FEET WITH NO
SIGNIFICANT WEATHER AND OR OBSTRUCTIONS TO VISIBILITY.


SDZ038>040-050-052>070-231600-
SOUTHEAST SOUTH DAKOTA

CITY           SKY/WX    TMP DP  RH WIND       PRES   REMARKS
BROOKINGS      MOSUNNY   72  64  76 S15       29.83F
CHAMBERLAIN    SUNNY     81  64  55 S15       29.73F
HURON          SUNNY     75  62  64 S17       29.74F
MADISON        FAIR      70  66  88 S17       29.84F
MITCHELL       CLOUDY    76  63  64 S20G28    29.78F
SIOUX FALLS    PTSUNNY   73  65  75 S18G24    29.86S
WINNER         FAIR      80  64  58 S17       29.73S
YANKTON        PTSUNNY   70  63  78 SE16      29.84S
$$

MNZ071-072-080-081-089-090-097-098-231600-
SOUTHWEST MINNESOTA

CITY           SKY/WX    TMP DP  RH WIND       PRES   REMARKS
JACKSON        MOSUNNY   72  61  68 S12G22    29.94F
LUVERNE        CLOUDY    72  63  73 S10       29.90S
MARSHALL       MOSUNNY   75  64  68 S17       29.84F
MONTEVIDEO     SUNNY     75  64  69 SW13G22   29.84S
REDWOOD FALLS  SUNNY     74  63  68 S16       29.88S
TRACY          MOSUNNY   73  65  74 S16G26    29.88R
WINDOM         PTSUNNY   72  63  73 S14G23    29.91F
WORTHINGTON    CLOUDY    71  65  81 S12G18    29.92S
$$

IAZ001>003-012>014-020>022-031-032-NEZ013-014-SDZ071-231600-
NORTHWEST IOWA

CITY           SKY/WX    TMP DP  RH WIND       PRES   REMARKS
CHEROKEE       CLOUDY    72  68  86 S10       29.94R
DENISON        MOSUNNY   73  68  83 S10G16    29.93F
ESTHERVILLE    MOSUNNY   68  65  90 S13G21    29.95F
LE MARS        PTSUNNY   73  66  78 S16       29.90S
ORANGE CITY    CLOUDY    72  66  83 S13       29.91S
SHELDON        CLOUDY    70  66  88 S15       29.90S
SIOUX CITY     CLOUDY    71  65  81 SE13      29.90F
SPENCER        MOSUNNY   71  63  75 S14       29.94S
STORM LAKE     CLOUDY    70  66  88 S12G18    29.96S
$$

ABBREVIATIONS USED IN REMARKS
   TC - TEMPERATURE IN CELSIUS
  WCI - WIND CHILL INDEX
   HX - HEAT INDEX
  VSB - VISIBILITY





USA.gov is the U.S. government's official web portal to all federal, state and local government web resources and services.